ISS (ZARYA) 1 25544U 98067A 26253.72411234 .00004958 00000+0 97859-4 0 9999 2 25544 51.6302 236.7477 0004996 126.7110 233.4338 15.49071701585011 POISK 1 36086U 09060A 26254.17569692 .00004925 00000+0 97240-4 0 9997 2 36086 51.6305 234.5133 0004993 127.7195 232.4246 15.49076358585899 CSS (TIANHE) 1 48274U 21035A 26254.12730334 .00018420 00000+0 22666-3 0 9997 2 48274 41.4684 160.2519 0002596 270.4310 89.6231 15.59803246306581 ISS (NAUKA) 1 49044U 21066A 26254.17569692 .00004925 00000+0 97240-4 0 9995 2 49044 51.6305 234.5133 0004993 127.7195 232.4246 15.49076358585932 FREGAT DEB 1 49271U 11037PF 26253.76262639 .00016723 00000+0 23780-1 0 9993 2 49271 51.6432 104.1840 0939887 112.3887 257.9218 12.44310857235692 CSS (WENTIAN) 1 53239U 22085A 26253.93522150 .00017370 00000+0 21407-3 0 9998 2 53239 41.4684 161.4192 0002582 270.1687 89.8855 15.59795392288234 CSS (MENGTIAN) 1 54216U 22143A 26254.12730334 .00018420 00000+0 22666-3 0 9991 2 54216 41.4684 160.2519 0002596 270.4310 89.6231 15.59803246307451 HRC MONOBLOCK CAMERA 1 66052U 98067XR 26253.11647578 .00203768 26714-4 59606-3 0 9995 2 66052 51.6150 197.8880 0005130 109.5512 250.6049 15.92364534 51444 SZ-21 MODULE 1 66515U 25246C 26252.39548844 .00061047 00000+0 25520-3 0 9998 2 66515 41.4709 139.8686 0011948 264.4361 95.5124 15.84583552 47069 DUPLEX 1 66906U 98067XS 26253.19505512 .00047136 00000+0 40027-3 0 9999 2 66906 51.6229 218.1551 0004411 116.8387 243.3061 15.69138428 43970 KNACKSAT-2 1 67683U 98067XZ 26253.46411133 .00064385 00000+0 56312-3 0 9996 2 67683 51.6239 222.9813 0007830 143.3958 216.7574 15.68261866 33621 GXIBA-1 1 67685U 98067YB 26253.20306316 .00083939 00000+0 62720-3 0 9992 2 67685 51.6211 221.9560 0008496 139.9225 220.2401 15.71935856 33617 UITMSAT-2 1 67686U 98067YC 26253.59366184 .00179058 00000+0 83074-3 0 9997 2 67686 51.6208 214.7641 0007840 114.8320 245.3498 15.82332066 33748 LEOPARD 1 67687U 98067YD 26252.23486281 .00135183 00000+0 98015-3 0 9991 2 67687 51.6242 227.5306 0007916 109.4025 250.7829 15.72444185 33375 HMU-SAT2 1 67688U 98067YE 26251.33446541 .00139709 00000+0 85590-3 0 9999 2 67688 51.6232 228.9811 0007690 102.5164 257.6696 15.76327721 33275 CREW DRAGON 12 1 67796U 26031A 26253.72411234 .00004958 00000+0 97859-4 0 9996 2 67796 51.6302 236.7477 0004996 126.7110 233.4338 15.49071701585904 CYGNUS NG-24 1 68689U 26079A 26253.72411234 .00004958 00000+0 97859-4 0 9990 2 68689 51.6302 236.7477 0004996 126.7110 233.4338 15.49071701586020 PROGRESS-MS 34 1 68837U 26093A 26253.72411234 .00004958 00000+0 97859-4 0 9991 2 68837 51.6302 236.7477 0004996 126.7110 233.4338 15.49071701586069 TIANZHOU-10 1 69049U 26102A 26253.93522150 .00017370 00000+0 21407-3 0 9998 2 69049 41.4684 161.4192 0002582 270.1687 89.8855 15.59795392307322 SHENZHOU-23 (SZ-23) 1 69180U 26113A 26253.93522150 .00017370 00000+0 21407-3 0 9996 2 69180 41.4684 161.4192 0002582 270.1687 89.8855 15.59795392307193